Regional Weather Roundup
Issued by NWS

Home | Current Version | Previous Version | Graphics & Text | Print | Product List | Glossary On
Versions: 1 2 3 4 5 6 7 8 9 10 11 12 13 14 15 16 17 18 19 20 21 22 23 24 25 26 27 28 29 30 31 32 33 34 35 36 37 38 39 40 41 42 43 44 45 46 47 48 49 50
000
ASUS43 KMKX 101400
RWRWI

WISCONSIN REGIONAL WEATHER ROUNDUP
NATIONAL WEATHER SERVICE MILWAUKEE/SULLIVAN WI
900 AM CDT THU JUL 10 2014

NOTE: "FAIR" INDICATES FEW OR NO CLOUDS BELOW 12,000 FEET WITH NO
SIGNIFICANT WEATHER AND/OR OBSTRUCTIONS TO VISIBILITY.

WIZ001-002-006>008-014>016-023>028-101500-
NORTHWEST WISCONSIN

CITY           SKY/WX    TMP DP  RH WIND       PRES   REMARKS
SUPERIOR ARPT  SUNNY     63  55  77 CALM      30.07S
ASHLAND        PTSUNNY   66  54  65 S7        30.10S
HAYWARD        PTSUNNY   66  55  67 S7        30.10S
SIREN          MOSUNNY   67  57  71 S7        30.07S
RICE LAKE      SUNNY     64  56  76 SE6       30.12R
LADYSMITH      SUNNY     65  56  73 SE5       30.14R
EAU CLAIRE     NOT AVBL
MENOMONIE      SUNNY     65  58  78 E5        30.10R
NEW RICHMOND   SUNNY     67  58  72 S6        30.09R
OSCEOLA        SUNNY     67  61  80 S8        30.10S
$$

WIZ003>005-009-010-017-018-101500-
NORTH CENTRAL WISCONSIN

CITY           SKY/WX    TMP DP  RH WIND       PRES   REMARKS
WOODRUFF       SUNNY     63  52  66 S8        30.14S
RHINELANDER    SUNNY     62  52  69 S5        30.16S
EAGLE RIVER    SUNNY     60  49  68 CALM      30.15S
LAND O LAKES   SUNNY     61  50  69 S3        30.16S
PHILLIPS       SUNNY     65  55  68 S5        30.13S
TOMAHAWK       MOSUNNY   59  57  92 CALM      30.15S
MEDFORD        SUNNY     63  54  73 S8        30.14S
MERRILL        SUNNY     61  53  75 CALM      30.15S
$$

WIZ029-030-035-036-043>047-101500-
CENTRAL WISCONSIN

CITY           SKY/WX    TMP DP  RH WIND       PRES   REMARKS
WAUSAU         SUNNY     65  52  62 S8        30.14R
MOSINEE        SUNNY     64  55  72 S7        30.16R
MARSHFIELD     SUNNY     66  56  70 S8        30.14R
STEVENS POINT  SUNNY     65  52  64 SE3       30.16R
WAUPACA        SUNNY     65  56  71 CALM      30.16S
WAUTOMA        NOT AVBL
WISC RAPIDS    SUNNY     70  54  56 S9        30.16R
CAMP DOUGLAS   NOT AVBL
$$

WIZ011>013-019>022-031-037>040-048>050-101500-
NORTHEAST WISCONSIN

CITY           SKY/WX    TMP DP  RH WIND       PRES   REMARKS
ANTIGO         SUNNY     62  52  69 S6        30.17R
STURGEON BAY   SUNNY     64  54  68 S6        30.17F
GREEN BAY      SUNNY     66  55  67 S5        30.16S
MANITOWOC      MOSUNNY   63  59  88 E7        30.17S
APPLETON       SUNNY     66  50  55 VRB5      30.16S
CLINTONVILLE   SUNNY     64  54  68 CALM      30.15F
OSHKOSH        SUNNY     68  54  60 S7        30.16R
$$

WIZ032>034-041-042-053>061-101500-
SOUTHWEST WISCONSIN

CITY           SKY/WX    TMP DP  RH WIND       PRES   REMARKS
LA CROSSE      MOSUNNY   72  56  57 S9        30.10S
SPARTA         PTSUNNY   66  55  67 CALM      30.13R
VIROQUA        FAIR      65  55  69 S7        30.14R
BOSCOBEL       SUNNY     68  59  73 N3        30.14S
PRAIRIE DU CHI MOSUNNY   67  59  74 E3        30.12S
PLATTEVILLE    FAIR      69  58  67 S8        30.16R
$$

WIZ056-057-062-063-064-067-068-101500-
SOUTH CENTRAL WISCONSIN

CITY           SKY/WX    TMP DP  RH WIND       PRES   REMARKS
BARABOO/DELLS  SUNNY     68  54  60 S5        30.15R
LONE ROCK      NOT AVBL
WATERTOWN      SUNNY     67  56  69 CALM      30.15S
MADISON        MOSUNNY   69  55  60 S5        30.16R
MIDDLETON      FAIR      70  53  54 S7        30.16R
MONROE         PTSUNNY   66  55  68 S7        30.15S
JANESVILLE     MOSUNNY   70  55  60 VRB6      30.16R
$$

WIZ051-052-058>065-066-070>072-101500-
SOUTHEAST WISCONSIN

CITY           SKY/WX    TMP DP  RH WIND       PRES   REMARKS
MILWAUKEE      SUNNY     66  57  72 E6        30.17R
WAUKESHA       SUNNY     66  54  63 CALM      30.18R
MILWAUKEE/TIMM NOT AVBL
RACINE         SUNNY     66  56  70 E7        30.18R
BURLINGTON     SUNNY     64  58  80 CALM      30.16R
KENOSHA        SUNNY     68  59  73 VRB3      30.17R
FOND DU LAC    SUNNY     69  54  58 S6        30.16R
SHEBOYGAN      PTSUNNY   60  59  96 S6        30.17R
WEST BEND      SUNNY     64  55  72 CALM      30.17R
JUNEAU         SUNNY     67  40  37 SE6       30.17R
$$

LSZ147-162-101500-
LAKE SUPERIOR

STATION/POSITION TIME  TEMP    WIND        PRES    WAVE
                       AIR SEA DIR/SP/G            HT/PER
                 (UTC) (F)     (DEG/KT/KT) (MB)    (FT/S)
W MID LAKE BUOY  1250   43 38  100/  2/  4 1019.7R   0
DEVILS ISLAND    1300   61      CALM  /  1 1019.0R
PORT WING        1300   59     360/  5/  6 1018.6R
SAXON HARBOR     1300          200/  5/  9 1019.0S
$$

LMZ867-665-643>646-101500-
LAKE MICHIGAN

STATION/POSITION TIME  TEMP    WIND        PRES    WAVE
                       AIR SEA DIR/SP/G            HT/PER
                 (UTC) (F)     (DEG/KT/KT) (MB)    (FT/S)
N MID LAKE BUOY  1250   56 54  190/  4/  6 1021.3R   0
NORTHPORT PIER   1300   63     150/  4/  6 1021.3R
SISTER BAY       1310   68     190/  6/  8   N/A
KEWAUNEE LAKESHO 1300   52     150/  2/  3 1022.1R
SHEBOYGAN LAKESH 1300   58     170/  3/  3 1021.7R
PORT WASHINGTON  1300   55      90/  1/  2 1022.0R
MILWAUKEE LAKESH 1300   58      40/  5/  6   N/A
S MID LAKE BUOY  1250   57 55   50/  6/  6 1021.5R   0
KENOSHA   LAKESH 1300   61      50/  2/  3   N/A
$$

TC  - TEMPERATURE IN CELSIUS
VSB - VISIBILITY IN STATUTE MILES
WCI - WIND CHILL INDEX
HX  - HEAT INDEX




USA.gov is the U.S. government's official web portal to all federal, state and local government web resources and services.